Location: Haram ta Haram Freeway
(35.0583°N, 51.4202°E)
Time: 02:56:36
(UTC+03:30)

IRIDIUM 33 DEB - Pass Details

Date: 07 December 2021
Orbit: 663 x 816 km, 86.4° (Epoch: 21 January)

Event Time Altitude Azimuth Distance (km) Brightness Sun altitude
Rises 18:14:17 0° 172° (S) 3,332 ? -16.4°
Reaches altitude 10° 18:16:42 10° 170° (S) 2,397 ? -16.8°
Maximum altitude 18:22:02 65° 89° (E) 881 ? -17.9°
Drops below altitude 10° 18:27:16 10° 9° (N) 2,346 ? -18.9°
Sets 18:29:36 0° 6° (N) 3,256 ? -19.4°
